UTA831 UUWW-ULLI

Flight info

Callsign UTA831
Flight time N/A
Altitude 32000
Route SUNUN3B SUNUN M869 RAVKA N50 NUDKO T561 ODATI T875 GENPA GENPA1B
Aircraft B738/M-SDE3/L

Departure

Time 2026-04-30 20:09
Airport Vnukovo International Airport (UUWW)

Arrival

Time N/A
Airport Pulkovo Airport (ULLI)
Time Latitude Longitude Altitude Speed Heading
2026-04-30 19:36 55.60298 37.28677 677 ft 0 kts 189°
2026-04-30 19:44 55.60296 37.28676 679 ft 2 kts 194°
2026-04-30 19:44 55.60258 37.28657 680 ft 9 kts 193°
2026-04-30 19:45 55.60192 37.28606 681 ft 13 kts 217°
2026-04-30 19:45 55.60133 37.28482 679 ft 0 kts 231°
2026-04-30 19:45 55.60110 37.28428 677 ft 11 kts 237°
2026-04-30 19:45 55.60083 37.28236 671 ft 22 kts 263°
2026-04-30 19:46 55.60115 37.27933 662 ft 12 kts 304°
2026-04-30 19:46 55.60118 37.27929 662 ft 0 kts 315°
2026-04-30 19:47 55.60119 37.27916 661 ft 4 kts 277°
2026-04-30 19:47 55.60107 37.27880 662 ft 9 kts 228°
2026-04-30 19:47 55.60017 37.27735 661 ft 18 kts 207°
2026-04-30 19:47 55.59928 37.27542 658 ft 25 kts 229°
2026-04-30 19:48 55.59804 37.27310 658 ft 32 kts 226°
2026-04-30 19:48 55.59633 37.26993 654 ft 11 kts 225°
2026-04-30 19:48 55.59612 37.26955 655 ft 10 kts 225°
2026-04-30 19:48 55.59549 37.26816 651 ft 20 kts 233°
2026-04-30 19:49 55.59527 37.26759 650 ft 10 kts 235°
2026-04-30 19:49 55.59509 37.26683 648 ft 0 kts 249°
2026-04-30 19:50 55.59505 37.26667 648 ft 6 kts 249°
2026-04-30 19:50 55.59478 37.26545 646 ft 17 kts 249°
2026-04-30 19:50 55.59428 37.26317 644 ft 26 kts 252°
2026-04-30 19:51 55.59351 37.25975 645 ft 33 kts 248°
2026-04-30 19:51 55.59303 37.25766 646 ft 36 kts 248°
2026-04-30 19:51 55.59122 37.24957 642 ft 42 kts 249°
2026-04-30 19:52 55.59063 37.24687 641 ft 0 kts 248°
2026-04-30 19:52 55.59062 37.24685 641 ft 0 kts 248°
2026-04-30 19:52 55.59062 37.24682 641 ft 0 kts 248°
2026-04-30 19:52 55.59062 37.24681 643 ft 0 kts 248°
2026-04-30 19:53 55.59061 37.24681 641 ft 0 kts 249°
2026-04-30 19:54 55.59061 37.24679 641 ft 0 kts 249°
2026-04-30 19:54 55.59061 37.24678 641 ft 0 kts 249°
2026-04-30 19:56 55.59059 37.24670 641 ft 1 kts 245°
2026-04-30 19:56 55.59031 37.24557 640 ft 19 kts 249°
2026-04-30 19:56 55.59012 37.24474 641 ft 0 kts 247°
2026-04-30 19:56 55.59010 37.24467 641 ft 0 kts 246°
2026-04-30 19:57 55.59009 37.24463 641 ft 1 kts 246°
2026-04-30 19:57 55.59008 37.24459 641 ft 0 kts 245°
2026-04-30 19:57 55.59007 37.24457 640 ft 0 kts 245°
2026-04-30 19:58 55.58991 37.24396 640 ft 0 kts 244°
2026-04-30 19:58 55.58971 37.24324 639 ft 0 kts 244°
2026-04-30 19:58 55.58937 37.24209 639 ft 22 kts 242°
2026-04-30 19:59 55.58908 37.24109 639 ft 0 kts 244°
2026-04-30 19:59 55.58908 37.24108 639 ft 1 kts 244°
2026-04-30 19:59 55.58904 37.24094 639 ft 0 kts 242°
2026-04-30 20:00 55.58902 37.24088 639 ft 1 kts 242°
2026-04-30 20:00 55.58901 37.24083 639 ft 0 kts 242°
2026-04-30 20:00 55.58900 37.24081 639 ft 1 kts 242°
2026-04-30 20:01 55.58875 37.23993 640 ft 0 kts 245°
2026-04-30 20:01 55.58858 37.23937 642 ft 0 kts 242°
2026-04-30 20:02 55.58820 37.23822 638 ft 20 kts 235°
2026-04-30 20:02 55.58714 37.23748 642 ft 0 kts 193°
2026-04-30 20:03 55.58729 37.23755 638 ft 6 kts 198°
2026-04-30 20:03 55.58764 37.23774 644 ft 1 kts 178°
2026-04-30 20:05 55.58756 37.23782 637 ft 5 kts 150°
2026-04-30 20:05 55.58712 37.23832 636 ft 0 kts 148°
2026-04-30 20:05 55.58702 37.23846 639 ft 6 kts 142°
2026-04-30 20:06 55.58681 37.23892 645 ft 0 kts 104°
2026-04-30 20:08 55.58680 37.23901 644 ft 3 kts 100°
2026-04-30 20:08 55.58680 37.23910 642 ft 3 kts 93°
2026-04-30 20:08 55.58738 37.24257 643 ft 69 kts 66°
2026-04-30 20:08 55.58908 37.25015 642 ft 120 kts 64°
2026-04-30 20:09 55.59285 37.26557 701 ft 168 kts 70°
2026-04-30 20:09 55.59519 37.27545 1081 ft 165 kts 64°
2026-04-30 20:09 55.60441 37.30358 1681 ft 203 kts 56°
2026-04-30 20:10 55.62687 37.33048 1705 ft 247 kts 353°
2026-04-30 20:10 55.64215 37.31772 1363 ft 271 kts 318°
2026-04-30 20:10 55.65140 37.29335 2689 ft 221 kts 289°
2026-04-30 20:11 55.65960 37.25471 4826 ft 176 kts 288°
2026-04-30 20:11 55.66284 37.23313 4765 ft 205 kts 286°
2026-04-30 20:11 55.66972 37.20923 4191 ft 243 kts 305°
2026-04-30 20:12 55.68928 37.16658 5485 ft 199 kts 312°
2026-04-30 20:12 55.69815 37.14869 6122 ft 192 kts 312°
2026-04-30 20:12 55.70637 37.13158 6088 ft 212 kts 310°
2026-04-30 20:13 55.71578 37.11086 5887 ft 233 kts 308°
2026-04-30 20:13 55.72526 37.08807 6190 ft 229 kts 306°
2026-04-30 20:13 55.73372 37.06634 6778 ft 214 kts 310°
2026-04-30 20:13 55.74276 37.04658 7053 ft 216 kts 308°
2026-04-30 20:14 55.75076 37.02611 7141 ft 224 kts 304°
2026-04-30 20:14 55.75416 37.00460 7172 ft 228 kts 257°
2026-04-30 20:14 55.74634 36.98846 7102 ft 237 kts 200°
2026-04-30 20:14 55.73839 36.98514 7073 ft 235 kts 178°
2026-04-30 20:15 55.72460 36.99127 7614 ft 213 kts 155°
2026-04-30 20:15 55.71189 36.99787 7814 ft 223 kts 169°
2026-04-30 20:15 55.69608 37.00258 7639 ft 228 kts 167°
2026-04-30 20:15 55.68043 37.01162 6828 ft 254 kts 156°
2026-04-30 20:16 55.66435 37.02578 6634 ft 241 kts 153°
2026-04-30 20:16 55.65020 37.03839 7172 ft 238 kts 150°
2026-04-30 20:16 55.63605 37.05684 7074 ft 252 kts 136°